Location: Nitra
(0.0000°N, 18.0833°E)
Time: 18:16:27
(UTC+01:00)

Okean-O - Pass Details

Date: 24 January 2021
Orbit: 638 x 641 km, 98.2° (Epoch: 01 March)

Event Time Altitude Azimuth Distance (km) Brightness Sun altitude
Rises 18:50:32 0° 164° (SSE) 2,942 6.1 -12.0°
Reaches altitude 10° 18:52:45 10° 162° (SSE) 2,031 5.2 -12.5°
Maximum altitude 18:57:09 71° 79° (E) 675 2.5 -13.5°
Drops below altitude 10° 19:01:33 10° 354° (N) 2,023 5.1 -14.6°
Sets 19:03:45 0° 352° (N) 2,929 5.9 -15.1°
